Time,TemperatureF,DewpointF,PressureIn,WindDirection,WindDirectionDegrees,WindSpeedMPH,WindSpeedGustMPH,Humidity,HourlyPrecipIn,Conditions,Clouds,dailyrainin,SolarRadiationWatts/m^2,SoftwareType,DateUTC
2013-06-09 00:02:00,63.9,63.0,30.15,SSW,206,0.0,0.0,97,0.00,,,0.00,0,Wunderground v.1.15,2013-06-09 04:02:00,
2013-06-09 00:03:00,63.8,62.9,30.15,SSW,206,0.0,0.0,97,0.00,,,0.00,0,Wunderground v.1.15,2013-06-09 04:03:00,
2013-06-09 00:06:00,63.3,62.4,30.15,SSW,206,0.0,0.0,97,0.00,,,0.00,0,Wunderground v.1.15,2013-06-09 04:06:00,
2013-06-09 00:07:00,63.2,62.3,30.15,SSW,206,0.0,0.0,97,0.00,,,0.00,0,Wunderground v.1.15,2013-06-09 04:07:00,
2013-06-09 00:08:00,63.1,62.2,30.15,SSW,206,0.0,0.0,97,0.00,,,0.00,0,Wunderground v.1.15,2013-06-09 04:08:00,
2013-06-09 00:14:00,63.1,62.2,30.15,SSW,206,0.0,0.0,97,0.00,,,0.00,0,Wunderground v.1.15,2013-06-09 04:14:00,
2013-06-09 00:20:00,63.0,62.1,30.15,SSW,206,0.0,0.0,97,0.00,,,0.00,0,Wunderground v.1.15,2013-06-09 04:20:00,
2013-06-09 00:25:00,63.3,62.4,30.15,SSW,206,0.0,0.0,97,0.00,,,0.00,0,Wunderground v.1.15,2013-06-09 04:25:00,
2013-06-09 00:31:00,63.6,63.0,30.15,SSW,206,0.0,0.0,98,0.00,,,0.00,0,Wunderground v.1.15,2013-06-09 04:31:00,
2013-06-09 00:36:00,63.1,62.2,30.16,SSW,206,0.0,0.0,97,0.00,,,0.00,0,Wunderground v.1.15,2013-06-09 04:36:00,
2013-06-09 00:42:00,63.0,62.1,30.15,SSW,206,0.0,0.0,97,0.00,,,0.00,0,Wunderground v.1.15,2013-06-09 04:42:00,
2013-06-09 00:47:00,62.9,62.0,30.16,SSW,206,0.0,0.0,97,0.00,,,0.00,0,Wunderground v.1.15,2013-06-09 04:47:00,
2013-06-09 00:53:00,63.2,62.3,30.15,SSW,206,0.0,0.0,97,0.00,,,0.00,0,Wunderground v.1.15,2013-06-09 04:53:00,
2013-06-09 00:59:00,63.5,62.9,30.15,SSW,206,0.0,0.0,98,0.00,,,0.00,0,Wunderground v.1.15,2013-06-09 04:59:00,
2013-06-09 01:05:00,63.2,62.3,30.15,SSW,206,0.0,0.0,97,0.00,,,0.00,0,Wunderground v.1.15,2013-06-09 05:05:00,
2013-06-09 01:11:00,63.0,62.1,30.15,SSW,206,0.0,0.0,97,0.00,,,0.00,0,Wunderground v.1.15,2013-06-09 05:11:00,
2013-06-09 01:16:00,63.0,62.1,30.15,SSW,206,0.0,0.0,97,0.00,,,0.00,0,Wunderground v.1.15,2013-06-09 05:16:00,
2013-06-09 01:22:00,63.1,62.2,30.15,SSW,206,0.0,0.0,97,0.00,,,0.00,0,Wunderground v.1.15,2013-06-09 05:22:00,
2013-06-09 01:28:00,62.9,62.0,30.15,SSW,206,0.0,0.0,97,0.00,,,0.00,0,Wunderground v.1.15,2013-06-09 05:28:00,
2013-06-09 01:33:00,62.1,61.2,30.14,SSW,206,0.0,0.0,97,0.00,,,0.00,0,Wunderground v.1.15,2013-06-09 05:33:00,
2013-06-09 01:39:00,61.8,60.9,30.14,SSW,206,0.0,0.0,97,0.00,,,0.00,0,Wunderground v.1.15,2013-06-09 05:39:00,
2013-06-09 01:44:00,62.3,61.7,30.15,SSW,206,1.0,1.0,98,0.00,,,0.00,0,Wunderground v.1.15,2013-06-09 05:44:00,
2013-06-09 01:50:00,63.5,62.9,30.15,South,169,0.0,0.0,98,0.00,,,0.00,0,Wunderground v.1.15,2013-06-09 05:50:00,
2013-06-09 01:56:00,63.1,62.5,30.15,South,169,0.0,0.0,98,0.00,,,0.00,0,Wunderground v.1.15,2013-06-09 05:56:00,
2013-06-09 02:01:00,62.7,62.1,30.15,South,169,0.0,0.0,98,0.00,,,0.00,0,Wunderground v.1.15,2013-06-09 06:01:00,
2013-06-09 02:05:00,62.8,62.2,30.14,South,169,0.0,0.0,98,0.00,,,0.00,0,Wunderground v.1.15,2013-06-09 06:05:00,
2013-06-09 02:10:00,62.5,61.9,30.15,South,169,0.0,0.0,98,0.00,,,0.00,0,Wunderground v.1.15,2013-06-09 06:10:00,
2013-06-09 02:15:00,62.2,61.6,30.15,South,169,0.0,0.0,98,0.00,,,0.00,0,Wunderground v.1.15,2013-06-09 06:15:00,
2013-06-09 02:20:00,62.3,61.7,30.15,South,169,0.0,0.0,98,0.00,,,0.00,0,Wunderground v.1.15,2013-06-09 06:20:00,
2013-06-09 02:26:00,62.3,61.7,30.15,South,169,0.0,0.0,98,0.00,,,0.00,0,Wunderground v.1.15,2013-06-09 06:26:00,
2013-06-09 02:31:00,62.2,61.6,30.15,South,169,0.0,0.0,98,0.00,,,0.00,0,Wunderground v.1.15,2013-06-09 06:31:00,
2013-06-09 02:36:00,62.3,61.7,30.15,South,169,0.0,0.0,98,0.00,,,0.00,0,Wunderground v.1.15,2013-06-09 06:36:00,
2013-06-09 02:41:00,62.7,62.1,30.15,South,169,0.0,1.0,98,0.00,,,0.00,0,Wunderground v.1.15,2013-06-09 06:41:00,
2013-06-09 02:46:00,62.2,61.6,30.15,South,169,0.0,1.0,98,0.00,,,0.00,0,Wunderground v.1.15,2013-06-09 06:46:00,
2013-06-09 02:51:00,62.1,61.5,30.15,South,169,0.0,0.0,98,0.00,,,0.00,0,Wunderground v.1.15,2013-06-09 06:51:00,
2013-06-09 02:56:00,62.3,61.7,30.15,South,169,0.0,0.0,98,0.00,,,0.00,0,Wunderground v.1.15,2013-06-09 06:56:00,
2013-06-09 03:01:00,62.1,61.5,30.15,South,169,0.0,0.0,98,0.00,,,0.00,0,Wunderground v.1.15,2013-06-09 07:01:00,
2013-06-09 03:06:00,62.5,61.9,30.15,South,169,0.0,0.0,98,0.00,,,0.00,0,Wunderground v.1.15,2013-06-09 07:06:00,
2013-06-09 03:11:00,62.3,61.7,30.14,South,169,0.0,0.0,98,0.00,,,0.00,0,Wunderground v.1.15,2013-06-09 07:11:00,
2013-06-09 03:16:00,61.8,61.2,30.14,South,169,0.0,0.0,98,0.00,,,0.00,0,Wunderground v.1.15,2013-06-09 07:16:00,
2013-06-09 03:21:00,61.6,61.0,30.15,South,169,0.0,0.0,98,0.00,,,0.00,0,Wunderground v.1.15,2013-06-09 07:21:00,
2013-06-09 03:26:00,61.8,61.2,30.15,South,169,0.0,0.0,98,0.00,,,0.00,0,Wunderground v.1.15,2013-06-09 07:26:00,
2013-06-09 03:31:00,62.2,61.6,30.15,South,169,1.0,1.0,98,0.00,,,0.00,0,Wunderground v.1.15,2013-06-09 07:31:00,
2013-06-09 03:36:00,62.5,61.9,30.15,South,169,1.0,1.0,98,0.00,,,0.00,0,Wunderground v.1.15,2013-06-09 07:36:00,
2013-06-09 03:41:00,62.5,61.9,30.16,South,169,0.0,0.0,98,0.00,,,0.00,0,Wunderground v.1.15,2013-06-09 07:41:00,
2013-06-09 03:46:00,62.6,62.0,30.15,South,169,0.0,0.0,98,0.00,,,0.00,0,Wunderground v.1.15,2013-06-09 07:46:00,
2013-06-09 03:51:00,62.5,61.9,30.16,South,169,0.0,0.0,98,0.00,,,0.00,0,Wunderground v.1.15,2013-06-09 07:51:00,
2013-06-09 03:56:00,62.7,62.1,30.16,South,169,0.0,0.0,98,0.00,,,0.00,0,Wunderground v.1.15,2013-06-09 07:56:00,
2013-06-09 04:01:00,62.5,61.9,30.16,South,169,1.0,1.0,98,0.00,,,0.00,0,Wunderground v.1.15,2013-06-09 08:01:00,
2013-06-09 04:06:00,62.7,62.1,30.16,South,169,0.0,1.0,98,0.00,,,0.00,0,Wunderground v.1.15,2013-06-09 08:06:00,
2013-06-09 04:11:00,62.7,62.1,30.16,South,169,0.0,0.0,98,0.00,,,0.00,0,Wunderground v.1.15,2013-06-09 08:11:00,
2013-06-09 04:16:00,63.0,62.4,30.16,South,169,0.0,0.0,98,0.00,,,0.00,0,Wunderground v.1.15,2013-06-09 08:16:00,
2013-06-09 04:21:00,62.5,61.9,30.16,South,169,0.0,0.0,98,0.00,,,0.00,0,Wunderground v.1.15,2013-06-09 08:21:00,
2013-06-09 04:26:00,62.1,61.5,30.16,South,169,0.0,0.0,98,0.00,,,0.00,0,Wunderground v.1.15,2013-06-09 08:26:00,
2013-06-09 04:32:00,62.2,61.6,30.16,South,169,0.0,0.0,98,0.00,,,0.00,0,Wunderground v.1.15,2013-06-09 08:32:00,
2013-06-09 04:37:00,62.3,61.7,30.16,South,169,0.0,0.0,98,0.00,,,0.00,0,Wunderground v.1.15,2013-06-09 08:37:00,
2013-06-09 04:42:00,62.2,61.6,30.16,South,169,0.0,0.0,98,0.00,,,0.00,0,Wunderground v.1.15,2013-06-09 08:42:00,
2013-06-09 04:47:00,62.2,61.6,30.17,South,169,0.0,0.0,98,0.00,,,0.00,0,Wunderground v.1.15,2013-06-09 08:47:00,
2013-06-09 04:52:00,62.7,62.1,30.17,South,169,0.0,0.0,98,0.00,,,0.00,0,Wunderground v.1.15,2013-06-09 08:52:00,
2013-06-09 04:57:00,62.5,61.9,30.17,South,169,0.0,0.0,98,0.00,,,0.00,0,Wunderground v.1.15,2013-06-09 08:57:00,
2013-06-09 05:02:00,62.7,62.1,30.17,South,169,0.0,0.0,98,0.00,,,0.00,0,Wunderground v.1.15,2013-06-09 09:02:00,
2013-06-09 05:07:00,62.8,62.2,30.17,South,169,0.0,0.0,98,0.00,,,0.00,0,Wunderground v.1.15,2013-06-09 09:07:00,
2013-06-09 05:12:00,62.6,62.0,30.17,South,169,0.0,0.0,98,0.00,,,0.00,0,Wunderground v.1.15,2013-06-09 09:12:00,
2013-06-09 05:17:00,62.6,62.0,30.17,South,169,0.0,0.0,98,0.00,,,0.00,0,Wunderground v.1.15,2013-06-09 09:17:00,
2013-06-09 05:22:00,62.6,62.0,30.17,South,169,0.0,0.0,98,0.00,,,0.00,0,Wunderground v.1.15,2013-06-09 09:22:00,
2013-06-09 05:27:00,62.6,62.0,30.17,South,169,0.0,0.0,98,0.00,,,0.00,0,Wunderground v.1.15,2013-06-09 09:27:00,
2013-06-09 05:32:00,62.4,61.8,30.18,South,169,0.0,0.0,98,0.00,,,0.00,0,Wunderground v.1.15,2013-06-09 09:32:00,
2013-06-09 05:37:00,62.3,61.7,30.18,South,169,0.0,0.0,98,0.00,,,0.00,0,Wunderground v.1.15,2013-06-09 09:37:00,
2013-06-09 05:42:00,62.1,61.5,30.18,South,169,0.0,0.0,98,0.00,,,0.00,0,Wunderground v.1.15,2013-06-09 09:42:00,
2013-06-09 05:47:00,61.8,61.2,30.18,South,169,0.0,0.0,98,0.00,,,0.00,0,Wunderground v.1.15,2013-06-09 09:47:00,
2013-06-09 05:52:00,62.0,61.4,30.18,South,169,0.0,0.0,98,0.00,,,0.00,0,Wunderground v.1.15,2013-06-09 09:52:00,
2013-06-09 05:57:00,61.9,61.3,30.18,South,169,0.0,0.0,98,0.00,,,0.00,0,Wunderground v.1.15,2013-06-09 09:57:00,
2013-06-09 06:02:00,62.2,61.6,30.18,South,169,0.0,0.0,98,0.00,,,0.00,7,Wunderground v.1.15,2013-06-09 10:02:00,
2013-06-09 06:07:00,62.4,61.8,30.18,South,169,0.0,0.0,98,0.00,,,0.00,11,Wunderground v.1.15,2013-06-09 10:07:00,
2013-06-09 06:12:00,62.5,61.9,30.18,South,169,0.0,0.0,98,0.00,,,0.00,12,Wunderground v.1.15,2013-06-09 10:12:00,
2013-06-09 06:17:00,62.5,61.9,30.18,South,169,0.0,0.0,98,0.00,,,0.00,16,Wunderground v.1.15,2013-06-09 10:17:00,
2013-06-09 06:22:00,62.8,62.2,30.18,South,169,0.0,0.0,98,0.00,,,0.00,19,Wunderground v.1.15,2013-06-09 10:22:00,
2013-06-09 06:27:00,62.7,62.1,30.18,South,169,0.0,1.0,98,0.00,,,0.00,25,Wunderground v.1.15,2013-06-09 10:27:00,
2013-06-09 06:32:00,62.8,62.2,30.19,South,169,0.0,1.0,98,0.00,,,0.00,33,Wunderground v.1.15,2013-06-09 10:32:00,
2013-06-09 06:37:00,62.9,62.3,30.19,South,169,0.0,1.0,98,0.00,,,0.00,46,Wunderground v.1.15,2013-06-09 10:37:00,
2013-06-09 06:42:00,62.9,62.3,30.19,South,169,0.0,0.0,98,0.00,,,0.00,49,Wunderground v.1.15,2013-06-09 10:42:00,
2013-06-09 06:47:00,62.7,62.1,30.19,South,169,0.0,0.0,98,0.00,,,0.00,53,Wunderground v.1.15,2013-06-09 10:47:00,
2013-06-09 06:52:00,62.8,62.2,30.19,South,169,0.0,0.0,98,0.00,,,0.00,62,Wunderground v.1.15,2013-06-09 10:52:00,
2013-06-09 06:57:00,63.1,62.5,30.20,South,169,0.0,0.0,98,0.00,,,0.00,72,Wunderground v.1.15,2013-06-09 10:57:00,
2013-06-09 07:02:00,63.4,62.8,30.19,South,169,0.0,0.0,98,0.00,,,0.00,84,Wunderground v.1.15,2013-06-09 11:02:00,
2013-06-09 07:07:00,63.5,62.9,30.20,South,169,0.0,0.0,98,0.00,,,0.00,91,Wunderground v.1.15,2013-06-09 11:07:00,
2013-06-09 07:12:00,64.0,63.4,30.20,South,169,0.0,0.0,98,0.00,,,0.00,95,Wunderground v.1.15,2013-06-09 11:12:00,
2013-06-09 07:17:00,64.3,63.7,30.20,South,169,0.0,0.0,98,0.00,,,0.00,109,Wunderground v.1.15,2013-06-09 11:17:00,
2013-06-09 07:22:00,64.8,64.2,30.20,South,169,0.0,0.0,98,0.00,,,0.00,139,Wunderground v.1.15,2013-06-09 11:22:00,
2013-06-09 07:27:00,65.1,64.5,30.20,South,169,0.0,0.0,98,0.00,,,0.00,146,Wunderground v.1.15,2013-06-09 11:27:00,
2013-06-09 07:33:00,65.9,65.3,30.19,South,169,0.0,0.0,98,0.00,,,0.00,149,Wunderground v.1.15,2013-06-09 11:33:00,
2013-06-09 07:38:00,66.2,65.6,30.20,South,169,0.0,1.0,98,0.00,,,0.00,149,Wunderground v.1.15,2013-06-09 11:38:00,
2013-06-09 07:43:00,67.0,66.4,30.20,South,169,1.0,2.0,98,0.00,,,0.00,172,Wunderground v.1.15,2013-06-09 11:43:00,
2013-06-09 07:48:00,67.7,67.1,30.20,South,169,1.0,2.0,98,0.00,,,0.00,156,Wunderground v.1.15,2013-06-09 11:48:00,
2013-06-09 07:53:00,68.0,66.8,30.20,South,169,1.0,2.0,96,0.00,,,0.00,186,Wunderground v.1.15,2013-06-09 11:53:00,
2013-06-09 07:58:00,68.4,66.6,30.21,South,169,1.0,2.0,94,0.00,,,0.00,207,Wunderground v.1.15,2013-06-09 11:58:00,
2013-06-09 08:03:00,68.6,66.8,30.21,South,169,1.0,2.0,94,0.00,,,0.00,237,Wunderground v.1.15,2013-06-09 12:03:00,
2013-06-09 08:08:00,68.8,67.0,30.21,South,169,0.0,2.0,94,0.00,,,0.00,227,Wunderground v.1.15,2013-06-09 12:08:00,
2013-06-09 08:13:00,69.1,67.0,30.21,South,169,0.0,0.0,93,0.00,,,0.00,192,Wunderground v.1.15,2013-06-09 12:13:00,
2013-06-09 08:18:00,69.5,67.4,30.21,South,169,1.0,1.0,93,0.00,,,0.00,185,Wunderground v.1.15,2013-06-09 12:18:00,
2013-06-09 08:23:00,69.7,67.3,30.21,South,169,0.0,1.0,92,0.00,,,0.00,202,Wunderground v.1.15,2013-06-09 12:23:00,
2013-06-09 08:28:00,70.1,68.0,30.21,South,169,0.0,1.0,93,0.00,,,0.00,197,Wunderground v.1.15,2013-06-09 12:28:00,
2013-06-09 08:33:00,70.2,68.1,30.21,South,169,0.0,1.0,93,0.00,,,0.00,237,Wunderground v.1.15,2013-06-09 12:33:00,
2013-06-09 08:38:00,70.4,68.0,30.22,South,169,0.0,1.0,92,0.00,,,0.00,241,Wunderground v.1.15,2013-06-09 12:38:00,
2013-06-09 08:43:00,70.9,68.5,30.22,South,169,0.0,1.0,92,0.00,,,0.00,218,Wunderground v.1.15,2013-06-09 12:43:00,
2013-06-09 08:48:00,71.0,68.6,30.22,South,169,0.0,1.0,92,0.00,,,0.00,373,Wunderground v.1.15,2013-06-09 12:48:00,
2013-06-09 08:53:00,71.5,68.7,30.22,South,169,0.0,1.0,91,0.00,,,0.00,302,Wunderground v.1.15,2013-06-09 12:53:00,
2013-06-09 08:58:00,72.1,69.6,30.22,South,169,1.0,1.0,92,0.00,,,0.00,388,Wunderground v.1.15,2013-06-09 12:58:00,
2013-06-09 09:03:00,72.9,70.1,30.22,South,169,1.0,2.0,91,0.00,,,0.00,512,Wunderground v.1.15,2013-06-09 13:03:00,
2013-06-09 09:08:00,73.3,70.2,30.22,South,169,2.0,2.0,90,0.00,,,0.00,501,Wunderground v.1.15,2013-06-09 13:08:00,
2013-06-09 09:13:00,73.9,71.1,30.22,South,169,0.0,2.0,91,0.00,,,0.00,543,Wunderground v.1.15,2013-06-09 13:13:00,
2013-06-09 09:18:00,74.7,71.2,30.22,South,169,1.0,2.0,89,0.00,,,0.00,568,Wunderground v.1.15,2013-06-09 13:18:00,
2013-06-09 09:23:00,76.1,72.3,30.22,South,169,2.0,2.0,88,0.00,,,0.00,666,Wunderground v.1.15,2013-06-09 13:23:00,
2013-06-09 09:28:00,76.8,71.9,30.22,South,180,2.0,4.0,85,0.00,,,0.00,603,Wunderground v.1.15,2013-06-09 13:28:00,
2013-06-09 09:33:00,77.6,72.0,30.22,South,171,2.0,5.0,83,0.00,,,0.00,582,Wunderground v.1.15,2013-06-09 13:33:00,
2013-06-09 09:38:00,77.8,72.2,30.22,SSE,167,2.0,5.0,83,0.00,,,0.00,608,Wunderground v.1.15,2013-06-09 13:38:00,
2013-06-09 09:43:00,78.3,72.0,30.21,SSE,153,4.0,4.0,81,0.00,,,0.00,520,Wunderground v.1.15,2013-06-09 13:43:00,
2013-06-09 09:48:00,78.5,71.8,30.21,SE,144,1.0,6.0,80,0.00,,,0.00,573,Wunderground v.1.15,2013-06-09 13:48:00,
2013-06-09 09:53:00,78.9,71.8,30.21,SSW,196,4.0,6.0,79,0.00,,,0.00,686,Wunderground v.1.15,2013-06-09 13:53:00,
2013-06-09 09:59:00,79.3,71.8,30.21,South,182,1.0,7.0,78,0.00,,,0.00,696,Wunderground v.1.15,2013-06-09 13:59:00,
2013-06-09 10:04:00,79.7,72.2,30.21,SSW,192,1.0,6.0,78,0.00,,,0.00,703,Wunderground v.1.15,2013-06-09 14:04:00,
2013-06-09 10:09:00,80.0,72.5,30.20,SSE,165,1.0,6.0,78,0.00,,,0.00,728,Wunderground v.1.15,2013-06-09 14:09:00,
2013-06-09 10:14:00,80.3,72.4,30.20,South,184,0.0,4.0,77,0.00,,,0.00,680,Wunderground v.1.15,2013-06-09 14:14:00,
2013-06-09 10:19:00,80.5,72.2,30.20,SSE,153,4.0,4.0,76,0.00,,,0.00,649,Wunderground v.1.15,2013-06-09 14:19:00,
2013-06-09 10:24:00,80.7,72.4,30.20,South,185,1.0,4.0,76,0.00,,,0.00,789,Wunderground v.1.15,2013-06-09 14:24:00,
2013-06-09 10:29:00,80.6,71.9,30.20,SE,144,2.0,4.0,75,0.00,,,0.00,633,Wunderground v.1.15,2013-06-09 14:29:00,
2013-06-09 10:34:00,80.8,71.7,30.20,SSE,154,4.0,5.0,74,0.00,,,0.00,594,Wunderground v.1.15,2013-06-09 14:34:00,
2013-06-09 10:39:00,81.1,72.4,30.20,SSE,153,1.0,6.0,75,0.00,,,0.00,768,Wunderground v.1.15,2013-06-09 14:39:00,
2013-06-09 10:44:00,81.1,72.0,30.20,SE,144,4.0,5.0,74,0.00,,,0.00,729,Wunderground v.1.15,2013-06-09 14:44:00,
2013-06-09 10:49:00,81.6,73.3,30.20,South,189,3.0,5.0,76,0.00,,,0.00,819,Wunderground v.1.15,2013-06-09 14:49:00,
2013-06-09 10:54:00,82.0,72.1,30.20,SE,136,3.0,5.0,72,0.00,,,0.00,851,Wunderground v.1.15,2013-06-09 14:54:00,
2013-06-09 10:59:00,82.0,72.1,30.20,ESE,109,1.0,5.0,72,0.00,,,0.00,761,Wunderground v.1.15,2013-06-09 14:59:00,
2013-06-09 11:04:00,82.3,72.4,30.20,South,175,2.0,7.0,72,0.00,,,0.00,761,Wunderground v.1.15,2013-06-09 15:04:00,
2013-06-09 11:09:00,81.9,72.0,30.20,SSE,159,4.0,7.0,72,0.00,,,0.00,812,Wunderground v.1.15,2013-06-09 15:09:00,
2013-06-09 11:14:00,82.5,73.0,30.20,South,184,4.0,5.0,73,0.00,,,0.00,816,Wunderground v.1.15,2013-06-09 15:14:00,
2013-06-09 11:19:00,82.3,72.0,30.20,South,175,3.0,6.0,71,0.00,,,0.00,882,Wunderground v.1.15,2013-06-09 15:19:00,
2013-06-09 11:24:00,82.6,71.8,30.20,SSE,163,4.0,7.0,70,0.00,,,0.00,905,Wunderground v.1.15,2013-06-09 15:24:00,
2013-06-09 11:29:00,82.9,72.5,30.20,South,178,2.0,7.0,71,0.00,,,0.00,889,Wunderground v.1.15,2013-06-09 15:29:00,
2013-06-09 11:34:00,83.3,72.9,30.20,SSE,154,2.0,5.0,71,0.00,,,0.00,916,Wunderground v.1.15,2013-06-09 15:34:00,
2013-06-09 11:39:00,83.0,70.9,30.20,ESE,121,3.0,6.0,67,0.00,,,0.00,963,Wunderground v.1.15,2013-06-09 15:39:00,
2013-06-09 11:44:00,83.1,71.9,30.20,ESE,121,7.0,8.0,69,0.00,,,0.00,947,Wunderground v.1.15,2013-06-09 15:44:00,
2013-06-09 11:49:00,83.7,72.0,30.20,SSE,155,4.0,9.0,68,0.00,,,0.00,944,Wunderground v.1.15,2013-06-09 15:49:00,
2013-06-09 11:54:00,84.0,71.9,30.20,SSE,159,5.0,9.0,67,0.00,,,0.00,988,Wunderground v.1.15,2013-06-09 15:54:00,
2013-06-09 11:59:00,83.9,70.9,30.20,SSE,153,4.0,9.0,65,0.00,,,0.00,993,Wunderground v.1.15,2013-06-09 15:59:00,
2013-06-09 12:04:00,84.5,71.0,30.20,SSE,153,3.0,7.0,64,0.00,,,0.00,928,Wunderground v.1.15,2013-06-09 16:04:00,
2013-06-09 12:09:00,84.4,71.3,30.20,South,175,3.0,7.0,65,0.00,,,0.00,949,Wunderground v.1.15,2013-06-09 16:09:00,
2013-06-09 12:14:00,84.2,72.0,30.20,SE,145,3.0,7.0,67,0.00,,,0.00,935,Wunderground v.1.15,2013-06-09 16:14:00,
2013-06-09 12:19:00,84.3,71.2,30.20,SSE,163,3.0,10.0,65,0.00,,,0.00,986,Wunderground v.1.15,2013-06-09 16:19:00,
2013-06-09 12:24:00,84.5,72.3,30.19,South,178,2.0,6.0,67,0.00,,,0.00,1023,Wunderground v.1.15,2013-06-09 16:24:00,
2013-06-09 12:29:00,84.1,71.1,30.19,West,259,0.0,7.0,65,0.00,,,0.00,369,Wunderground v.1.15,2013-06-09 16:29:00,
2013-06-09 12:34:00,85.0,72.4,30.19,SE,136,5.0,7.0,66,0.00,,,0.00,1030,Wunderground v.1.15,2013-06-09 16:34:00,
2013-06-09 12:39:00,85.1,72.0,30.19,South,190,3.0,7.0,65,0.00,,,0.00,1020,Wunderground v.1.15,2013-06-09 16:39:00,
2013-06-09 12:44:00,84.6,73.7,30.20,SE,142,5.0,6.0,70,0.00,,,0.00,1013,Wunderground v.1.15,2013-06-09 16:44:00,
2013-06-09 12:49:00,85.3,73.1,30.19,SW,215,2.0,9.0,67,0.00,,,0.00,1095,Wunderground v.1.15,2013-06-09 16:49:00,
2013-06-09 12:54:00,84.7,71.2,30.19,SSE,155,3.0,7.0,64,0.00,,,0.00,1023,Wunderground v.1.15,2013-06-09 16:54:00,
2013-06-09 12:59:00,84.8,71.3,30.18,SSE,157,3.0,7.0,64,0.00,,,0.00,1025,Wunderground v.1.15,2013-06-09 16:59:00,
2013-06-09 13:04:00,84.7,71.2,30.18,SSE,150,5.0,7.0,64,0.00,,,0.00,1041,Wunderground v.1.15,2013-06-09 17:04:00,
2013-06-09 13:09:00,85.8,70.8,30.18,SE,146,4.0,7.0,61,0.00,,,0.00,1005,Wunderground v.1.15,2013-06-09 17:09:00,
2013-06-09 13:14:00,84.6,70.1,30.18,SSW,196,0.0,6.0,62,0.00,,,0.00,380,Wunderground v.1.15,2013-06-09 17:14:00,
2013-06-09 13:19:00,85.2,70.7,30.18,SE,142,4.0,9.0,62,0.00,,,0.00,935,Wunderground v.1.15,2013-06-09 17:19:00,
2013-06-09 13:24:00,85.3,71.3,30.18,SW,220,6.0,8.0,63,0.00,,,0.00,1023,Wunderground v.1.15,2013-06-09 17:24:00,
2013-06-09 13:29:00,85.5,70.5,30.18,SSE,166,1.0,8.0,61,0.00,,,0.00,979,Wunderground v.1.15,2013-06-09 17:29:00,
2013-06-09 13:34:00,85.7,70.7,30.18,SSE,150,4.0,10.0,61,0.00,,,0.00,962,Wunderground v.1.15,2013-06-09 17:34:00,
2013-06-09 13:39:00,85.9,70.9,30.17,SSE,159,3.0,10.0,61,0.00,,,0.00,889,Wunderground v.1.15,2013-06-09 17:39:00,
2013-06-09 13:44:00,86.2,71.6,30.17,SSE,149,5.0,8.0,62,0.00,,,0.00,886,Wunderground v.1.15,2013-06-09 17:44:00,
2013-06-09 13:49:00,86.3,69.8,30.17,SE,142,5.0,9.0,58,0.00,,,0.00,988,Wunderground v.1.15,2013-06-09 17:49:00,
2013-06-09 13:54:00,86.2,69.7,30.17,South,185,3.0,9.0,58,0.00,,,0.00,867,Wunderground v.1.15,2013-06-09 17:54:00,
2013-06-09 13:59:00,85.9,70.9,30.16,SSW,207,6.0,9.0,61,0.00,,,0.00,823,Wunderground v.1.15,2013-06-09 17:59:00,
2013-06-09 14:04:00,85.6,70.6,30.16,SSW,208,4.0,7.0,61,0.00,,,0.00,909,Wunderground v.1.15,2013-06-09 18:04:00,
2013-06-09 14:09:00,86.0,71.5,30.16,South,180,3.0,4.0,62,0.00,,,0.00,886,Wunderground v.1.15,2013-06-09 18:09:00,
2013-06-09 14:14:00,86.5,71.0,30.16,South,185,1.0,6.0,60,0.00,,,0.00,895,Wunderground v.1.15,2013-06-09 18:14:00,
2013-06-09 14:19:00,86.4,71.8,30.16,South,184,4.0,4.0,62,0.00,,,0.00,933,Wunderground v.1.15,2013-06-09 18:19:00,
2013-06-09 14:24:00,86.0,70.0,30.16,SSE,147,3.0,6.0,59,0.00,,,0.00,856,Wunderground v.1.15,2013-06-09 18:24:00,
2013-06-09 14:29:00,86.2,71.2,30.15,South,182,2.0,3.0,61,0.00,,,0.00,874,Wunderground v.1.15,2013-06-09 18:29:00,
2013-06-09 14:34:00,86.8,71.7,30.15,SSE,156,4.0,5.0,61,0.00,,,0.00,847,Wunderground v.1.15,2013-06-09 18:34:00,
2013-06-09 14:39:00,86.9,71.3,30.15,SW,225,5.0,5.0,60,0.00,,,0.00,919,Wunderground v.1.15,2013-06-09 18:39:00,
2013-06-09 14:44:00,86.6,71.1,30.15,SSW,211,4.0,8.0,60,0.00,,,0.00,875,Wunderground v.1.15,2013-06-09 18:44:00,
2013-06-09 14:49:00,86.4,69.9,30.15,South,178,2.0,4.0,58,0.00,,,0.00,863,Wunderground v.1.15,2013-06-09 18:49:00,
2013-06-09 14:54:00,86.8,70.8,30.15,SSE,154,3.0,8.0,59,0.00,,,0.00,814,Wunderground v.1.15,2013-06-09 18:54:00,
2013-06-09 14:59:00,86.8,70.2,30.15,SSE,147,7.0,8.0,58,0.00,,,0.00,831,Wunderground v.1.15,2013-06-09 18:59:00,
2013-06-09 15:04:00,86.7,71.2,30.14,SSE,155,6.0,9.0,60,0.00,,,0.00,673,Wunderground v.1.15,2013-06-09 19:04:00,
2013-06-09 15:10:00,86.3,69.8,30.14,South,169,5.0,5.0,58,0.00,,,0.00,798,Wunderground v.1.15,2013-06-09 19:10:00,
2013-06-09 15:15:00,86.3,72.2,30.14,SSW,192,5.0,8.0,63,0.00,,,0.00,773,Wunderground v.1.15,2013-06-09 19:15:00,
2013-06-09 15:20:00,86.1,71.1,30.14,South,180,1.0,4.0,61,0.00,,,0.00,218,Wunderground v.1.15,2013-06-09 19:20:00,
2013-06-09 15:25:00,86.1,70.6,30.14,SSE,155,4.0,8.0,60,0.00,,,0.00,742,Wunderground v.1.15,2013-06-09 19:25:00,
2013-06-09 15:30:00,86.7,71.2,30.13,SSE,159,2.0,5.0,60,0.00,,,0.00,733,Wunderground v.1.15,2013-06-09 19:30:00,
2013-06-09 15:35:00,86.8,69.7,30.14,SSE,157,4.0,8.0,57,0.00,,,0.00,759,Wunderground v.1.15,2013-06-09 19:35:00,
2013-06-09 15:40:00,87.2,71.1,30.13,WSW,239,3.0,5.0,59,0.00,,,0.00,740,Wunderground v.1.15,2013-06-09 19:40:00,
2013-06-09 15:45:00,87.1,72.0,30.13,South,175,5.0,7.0,61,0.00,,,0.00,719,Wunderground v.1.15,2013-06-09 19:45:00,
2013-06-09 15:50:00,86.9,71.3,30.12,South,184,3.0,7.0,60,0.00,,,0.00,708,Wunderground v.1.15,2013-06-09 19:50:00,
2013-06-09 15:55:00,86.6,71.5,30.12,SW,224,4.0,10.0,61,0.00,,,0.00,700,Wunderground v.1.15,2013-06-09 19:55:00,
2013-06-09 16:00:00,87.0,72.4,30.11,South,169,4.0,6.0,62,0.00,,,0.00,686,Wunderground v.1.15,2013-06-09 20:00:00,
2013-06-09 16:05:00,87.4,71.8,30.11,WSW,237,3.0,8.0,60,0.00,,,0.00,686,Wunderground v.1.15,2013-06-09 20:05:00,
2013-06-09 16:10:00,87.1,70.5,30.11,SSE,150,5.0,8.0,58,0.00,,,0.00,701,Wunderground v.1.15,2013-06-09 20:10:00,
2013-06-09 16:15:00,87.1,71.0,30.11,SSW,200,6.0,8.0,59,0.00,,,0.00,682,Wunderground v.1.15,2013-06-09 20:15:00,
2013-06-09 16:20:00,87.5,70.9,30.11,South,182,5.0,7.0,58,0.00,,,0.00,633,Wunderground v.1.15,2013-06-09 20:20:00,
2013-06-09 16:25:00,87.1,71.5,30.11,SSE,155,5.0,9.0,60,0.00,,,0.00,598,Wunderground v.1.15,2013-06-09 20:25:00,
2013-06-09 16:30:00,87.0,70.4,30.11,SSE,155,2.0,5.0,58,0.00,,,0.00,594,Wunderground v.1.15,2013-06-09 20:30:00,
2013-06-09 16:35:00,87.3,71.2,30.11,SE,138,4.0,7.0,59,0.00,,,0.00,619,Wunderground v.1.15,2013-06-09 20:35:00,
2013-06-09 16:40:00,87.1,71.5,30.11,SE,141,4.0,4.0,60,0.00,,,0.00,598,Wunderground v.1.15,2013-06-09 20:40:00,
2013-06-09 16:45:00,87.5,72.4,30.11,South,177,3.0,6.0,61,0.00,,,0.00,571,Wunderground v.1.15,2013-06-09 20:45:00,
2013-06-09 16:50:00,87.5,70.9,30.11,SSE,166,1.0,6.0,58,0.00,,,0.00,557,Wunderground v.1.15,2013-06-09 20:50:00,
2013-06-09 16:55:00,87.4,70.8,30.11,SSW,204,5.0,9.0,58,0.00,,,0.00,533,Wunderground v.1.15,2013-06-09 20:55:00,
2013-06-09 17:00:00,87.1,71.5,30.11,SSW,194,1.0,5.0,60,0.00,,,0.00,520,Wunderground v.1.15,2013-06-09 21:00:00,
2013-06-09 17:05:00,87.0,71.4,30.11,SW,229,4.0,8.0,60,0.00,,,0.00,503,Wunderground v.1.15,2013-06-09 21:05:00,
2013-06-09 17:10:00,87.0,71.4,30.11,SSE,166,3.0,7.0,60,0.00,,,0.00,494,Wunderground v.1.15,2013-06-09 21:10:00,
2013-06-09 17:15:00,86.8,71.7,30.11,South,180,6.0,7.0,61,0.00,,,0.00,473,Wunderground v.1.15,2013-06-09 21:15:00,
2013-06-09 17:21:00,86.8,71.7,30.11,SSE,159,4.0,6.0,61,0.00,,,0.00,457,Wunderground v.1.15,2013-06-09 21:21:00,
2013-06-09 17:25:00,87.1,71.5,30.11,SSE,152,4.0,7.0,60,0.00,,,0.00,134,Wunderground v.1.15,2013-06-09 21:25:00,
2013-06-09 17:31:00,86.2,71.2,30.11,SSE,167,2.0,5.0,61,0.00,,,0.00,172,Wunderground v.1.15,2013-06-09 21:31:00,
2013-06-09 17:36:00,86.0,71.9,30.11,SSE,161,5.0,7.0,63,0.00,,,0.00,429,Wunderground v.1.15,2013-06-09 21:36:00,
2013-06-09 17:41:00,86.2,71.6,30.11,SSE,158,3.0,6.0,62,0.00,,,0.00,401,Wunderground v.1.15,2013-06-09 21:41:00,
2013-06-09 17:46:00,86.7,72.6,30.11,SSE,153,3.0,6.0,63,0.00,,,0.00,381,Wunderground v.1.15,2013-06-09 21:46:00,
2013-06-09 17:51:00,86.5,71.5,30.12,SSW,193,5.0,8.0,61,0.00,,,0.00,364,Wunderground v.1.15,2013-06-09 21:51:00,
2013-06-09 17:56:00,86.6,72.0,30.12,South,176,2.0,8.0,62,0.00,,,0.00,355,Wunderground v.1.15,2013-06-09 21:56:00,
2013-06-09 18:01:00,86.5,71.9,30.12,SE,137,3.0,5.0,62,0.00,,,0.00,209,Wunderground v.1.15,2013-06-09 22:01:00,
2013-06-09 18:06:00,85.5,71.9,30.12,SSE,153,3.0,7.0,64,0.00,,,0.00,139,Wunderground v.1.15,2013-06-09 22:06:00,
2013-06-09 18:11:00,85.0,71.9,30.12,SE,136,2.0,5.0,65,0.00,,,0.00,128,Wunderground v.1.15,2013-06-09 22:11:00,
2013-06-09 18:16:00,84.3,72.1,30.12,South,176,1.0,6.0,67,0.00,,,0.00,120,Wunderground v.1.15,2013-06-09 22:16:00,
2013-06-09 18:21:00,84.0,72.3,30.12,SSE,162,2.0,4.0,68,0.00,,,0.00,134,Wunderground v.1.15,2013-06-09 22:21:00,
2013-06-09 18:27:00,83.9,72.2,30.12,South,186,2.0,5.0,68,0.00,,,0.00,123,Wunderground v.1.15,2013-06-09 22:27:00,
2013-06-09 18:32:00,83.7,72.4,30.12,SSE,167,2.0,6.0,69,0.00,,,0.00,142,Wunderground v.1.15,2013-06-09 22:32:00,
2013-06-09 18:37:00,83.7,72.4,30.12,SSE,148,5.0,6.0,69,0.00,,,0.00,169,Wunderground v.1.15,2013-06-09 22:37:00,
2013-06-09 18:42:00,83.8,73.0,30.12,SSE,161,1.0,3.0,70,0.00,,,0.00,137,Wunderground v.1.15,2013-06-09 22:42:00,
2013-06-09 18:47:00,83.4,73.0,30.12,SSE,166,2.0,3.0,71,0.00,,,0.00,116,Wunderground v.1.15,2013-06-09 22:47:00,
2013-06-09 18:52:00,83.2,72.8,30.13,South,178,2.0,3.0,71,0.00,,,0.00,100,Wunderground v.1.15,2013-06-09 22:52:00,
2013-06-09 18:57:00,83.0,73.0,30.13,SE,144,2.0,4.0,72,0.00,,,0.00,88,Wunderground v.1.15,2013-06-09 22:57:00,
2013-06-09 19:02:00,82.9,72.9,30.12,SSE,163,1.0,2.0,72,0.00,,,0.00,84,Wunderground v.1.15,2013-06-09 23:02:00,
2013-06-09 19:07:00,82.5,73.0,30.12,SSE,167,0.0,3.0,73,0.00,,,0.00,79,Wunderground v.1.15,2013-06-09 23:07:00,
2013-06-09 19:12:00,82.2,73.5,30.13,SSE,167,0.0,1.0,75,0.00,,,0.00,72,Wunderground v.1.15,2013-06-09 23:12:00,
2013-06-09 19:17:00,82.0,73.3,30.12,SSE,163,0.0,2.0,75,0.00,,,0.00,72,Wunderground v.1.15,2013-06-09 23:17:00,
2013-06-09 19:22:00,82.2,73.5,30.12,SSE,163,2.0,3.0,75,0.00,,,0.00,72,Wunderground v.1.15,2013-06-09 23:22:00,
2013-06-09 19:27:00,82.0,72.9,30.12,SSE,163,1.0,3.0,74,0.00,,,0.00,72,Wunderground v.1.15,2013-06-09 23:27:00,
2013-06-09 19:32:00,81.6,73.3,30.12,SSE,153,1.0,3.0,76,0.00,,,0.00,70,Wunderground v.1.15,2013-06-09 23:32:00,
2013-06-09 19:37:00,81.6,73.3,30.12,SSE,148,1.0,3.0,76,0.00,,,0.00,62,Wunderground v.1.15,2013-06-09 23:37:00,
2013-06-09 19:42:00,81.3,73.4,30.12,SSE,148,0.0,1.0,77,0.00,,,0.00,53,Wunderground v.1.15,2013-06-09 23:42:00,
2013-06-09 19:47:00,81.2,73.3,30.12,SSE,167,2.0,2.0,77,0.00,,,0.00,40,Wunderground v.1.15,2013-06-09 23:47:00,
2013-06-09 19:52:00,81.1,73.2,30.12,SSE,158,1.0,2.0,77,0.00,,,0.00,33,Wunderground v.1.15,2013-06-09 23:52:00,
2013-06-09 19:57:00,80.7,73.2,30.12,SSE,158,1.0,2.0,78,0.00,,,0.00,30,Wunderground v.1.15,2013-06-09 23:57:00,
2013-06-09 20:02:00,80.4,72.9,30.12,South,172,1.0,3.0,78,0.00,,,0.00,25,Wunderground v.1.15,2013-06-10 00:02:00,
2013-06-09 20:07:00,80.1,73.0,30.12,South,172,0.0,3.0,79,0.00,,,0.00,19,Wunderground v.1.15,2013-06-10 00:07:00,
2013-06-09 20:12:00,79.8,72.7,30.12,South,172,0.0,2.0,79,0.00,,,0.00,14,Wunderground v.1.15,2013-06-10 00:12:00,
2013-06-09 20:17:00,80.0,72.5,30.12,South,178,1.0,3.0,78,0.00,,,0.00,9,Wunderground v.1.15,2013-06-10 00:17:00,
2013-06-09 20:22:00,80.0,72.5,30.13,SSE,168,1.0,3.0,78,0.00,,,0.00,5,Wunderground v.1.15,2013-06-10 00:22:00,
2013-06-09 20:27:00,79.8,72.3,30.12,SSE,168,0.0,3.0,78,0.00,,,0.00,0,Wunderground v.1.15,2013-06-10 00:27:00,
2013-06-09 20:32:00,79.6,72.5,30.13,SSE,168,0.0,2.0,79,0.00,,,0.00,0,Wunderground v.1.15,2013-06-10 00:32:00,
2013-06-09 20:37:00,78.8,72.5,30.13,SSE,168,0.0,2.0,81,0.00,,,0.00,0,Wunderground v.1.15,2013-06-10 00:37:00,
2013-06-09 20:42:00,78.6,72.6,30.13,SSE,168,0.0,2.0,82,0.00,,,0.00,0,Wunderground v.1.15,2013-06-10 00:42:00,
2013-06-09 20:47:00,78.6,72.6,30.13,SSE,168,0.0,2.0,82,0.00,,,0.00,0,Wunderground v.1.15,2013-06-10 00:47:00,
2013-06-09 20:52:00,78.9,72.6,30.13,SSE,168,0.0,1.0,81,0.00,,,0.00,0,Wunderground v.1.15,2013-06-10 00:52:00,
2013-06-09 20:57:00,78.7,72.4,30.13,SSE,168,0.0,2.0,81,0.00,,,0.00,0,Wunderground v.1.15,2013-06-10 00:57:00,
2013-06-09 21:02:00,78.4,72.4,30.13,SSE,168,0.0,1.0,82,0.00,,,0.00,0,Wunderground v.1.15,2013-06-10 01:02:00,
2013-06-09 21:07:00,77.9,72.3,30.13,SSE,168,0.0,1.0,83,0.00,,,0.00,0,Wunderground v.1.15,2013-06-10 01:07:00,
2013-06-09 21:12:00,77.9,72.3,30.13,SSE,168,0.0,1.0,83,0.00,,,0.00,0,Wunderground v.1.15,2013-06-10 01:12:00,
2013-06-09 21:17:00,77.7,72.5,30.13,SSE,168,0.0,1.0,84,0.00,,,0.00,0,Wunderground v.1.15,2013-06-10 01:17:00,
2013-06-09 21:22:00,77.8,72.2,30.13,SSE,168,0.0,1.0,83,0.00,,,0.00,0,Wunderground v.1.15,2013-06-10 01:22:00,
2013-06-09 21:27:00,77.9,72.3,30.13,SSE,168,0.0,1.0,83,0.00,,,0.00,0,Wunderground v.1.15,2013-06-10 01:27:00,
2013-06-09 21:32:00,77.4,72.5,30.13,SSE,168,0.0,1.0,85,0.00,,,0.00,0,Wunderground v.1.15,2013-06-10 01:32:00,
2013-06-09 21:37:00,77.2,72.3,30.13,SSE,168,0.0,2.0,85,0.00,,,0.00,0,Wunderground v.1.15,2013-06-10 01:37:00,
2013-06-09 21:43:00,77.4,72.2,30.14,SSE,158,1.0,3.0,84,0.00,,,0.00,0,Wunderground v.1.15,2013-06-10 01:43:00,
2013-06-09 21:48:00,77.7,72.5,30.14,SSE,154,2.0,3.0,84,0.00,,,0.00,0,Wunderground v.1.15,2013-06-10 01:48:00,
2013-06-09 21:53:00,77.9,72.3,30.14,SSE,161,2.0,4.0,83,0.00,,,0.00,0,Wunderground v.1.15,2013-06-10 01:53:00,
2013-06-09 21:58:00,78.0,72.4,30.14,South,169,1.0,7.0,83,0.00,,,0.00,0,Wunderground v.1.15,2013-06-10 01:58:00,
2013-06-09 22:03:00,78.0,72.1,30.14,South,188,4.0,5.0,82,0.00,,,0.00,0,Wunderground v.1.15,2013-06-10 02:03:00,
2013-06-09 22:08:00,77.9,71.6,30.14,SSE,163,2.0,6.0,81,0.00,,,0.00,0,Wunderground v.1.15,2013-06-10 02:08:00,
2013-06-09 22:13:00,78.0,71.3,30.15,SSE,155,2.0,5.0,80,0.00,,,0.00,0,Wunderground v.1.15,2013-06-10 02:13:00,
2013-06-09 22:18:00,77.9,70.5,30.15,South,174,2.0,9.0,78,0.00,,,0.00,0,Wunderground v.1.15,2013-06-10 02:18:00,
2013-06-09 22:23:00,78.0,70.6,30.15,SSE,166,5.0,7.0,78,0.00,,,0.00,0,Wunderground v.1.15,2013-06-10 02:23:00,
2013-06-09 22:28:00,77.9,70.1,30.15,SSE,163,3.0,12.0,77,0.00,,,0.00,0,Wunderground v.1.15,2013-06-10 02:28:00,
2013-06-09 22:33:00,77.6,70.2,30.16,SSE,168,7.0,15.0,78,0.00,,,0.01,0,Wunderground v.1.15,2013-06-10 02:33:00,
2013-06-09 22:38:00,75.8,70.6,30.16,SSW,207,8.0,15.0,84,0.32,,,0.06,0,Wunderground v.1.15,2013-06-10 02:38:00,
2013-06-09 22:43:00,74.6,70.8,30.17,SSW,204,5.0,10.0,88,0.54,,,0.10,0,Wunderground v.1.15,2013-06-10 02:43:00,
2013-06-09 22:48:00,73.7,70.6,30.17,South,189,6.0,10.0,90,0.80,,,0.16,0,Wunderground v.1.15,2013-06-10 02:48:00,
2013-06-09 22:53:00,73.3,70.8,30.16,SSE,168,1.0,8.0,92,0.26,,,0.18,0,Wunderground v.1.15,2013-06-10 02:53:00,
2013-06-09 22:58:00,73.2,71.1,30.16,South,171,1.0,8.0,93,0.11,,,0.19,0,Wunderground v.1.15,2013-06-10 02:58:00,
2013-06-09 23:03:00,73.0,71.2,30.16,South,191,1.0,4.0,94,0.18,,,0.20,0,Wunderground v.1.15,2013-06-10 03:03:00,
2013-06-09 23:08:00,73.0,71.2,30.15,South,180,3.0,4.0,94,0.16,,,0.22,0,Wunderground v.1.15,2013-06-10 03:08:00,
2013-06-09 23:13:00,72.8,71.0,30.15,SSE,167,2.0,6.0,94,0.11,,,0.22,0,Wunderground v.1.15,2013-06-10 03:13:00,
2013-06-09 23:18:00,72.7,70.9,30.15,South,187,1.0,6.0,94,0.06,,,0.22,0,Wunderground v.1.15,2013-06-10 03:18:00,
2013-06-09 23:23:00,72.5,70.7,30.15,South,179,3.0,3.0,94,0.04,,,0.22,0,Wunderground v.1.15,2013-06-10 03:23:00,
2013-06-09 23:28:00,72.4,70.6,30.14,South,188,2.0,3.0,94,0.00,,,0.22,0,Wunderground v.1.15,2013-06-10 03:28:00,
2013-06-09 23:33:00,72.3,70.2,30.14,South,185,2.0,4.0,93,0.00,,,0.22,0,Wunderground v.1.15,2013-06-10 03:33:00,
2013-06-09 23:38:00,72.1,70.0,30.15,SSW,203,4.0,6.0,93,0.00,,,0.22,0,Wunderground v.1.15,2013-06-10 03:38:00,
2013-06-09 23:43:00,72.0,69.9,30.15,SSW,207,4.0,5.0,93,0.00,,,0.22,0,Wunderground v.1.15,2013-06-10 03:43:00,
2013-06-09 23:48:00,72.0,69.9,30.15,South,190,3.0,5.0,93,0.00,,,0.22,0,Wunderground v.1.15,2013-06-10 03:48:00,
2013-06-09 23:54:00,72.0,69.9,30.15,South,184,5.0,7.0,93,0.00,,,0.22,0,Wunderground v.1.15,2013-06-10 03:54:00,
2013-06-09 23:59:00,71.9,69.8,30.15,SSW,204,4.0,7.0,93,0.00,,,0.22,0,Wunderground v.1.15,2013-06-10 03:59:00,